Location: Chuignolles
(49.9022°N, 2.7284°E)
Time: 10:31:13
(UTC+00:00)

Daily predictions for brighter satellites

Satellite Brightness Start Highest point End
(mag) Time Altitude Azimuth Time Altitude Azimuth Time Altitude Azimuth
USA 267 3.7 16:15:00 10° ENE 16:21:20 50° SE 16:27:39 10° SSW
SJ 16-02 2.9 16:20:12 10° NW 16:24:19 41° WSW 16:28:25 10° S
H-2A R/B 3.0 16:21:03 10° ESE 16:25:06 24° ENE 16:29:04 10° N
Cosmos 1763 Rocket 4.0 16:23:05 10° S 16:27:45 39° ESE 16:32:30 10° NE
USA 276 3.9 16:25:07 10° W 16:27:58 33° SSW 16:30:49 10° SE
USA 305 3.3 16:24:10 10° W 16:28:18 52° N 16:32:28 10° ENE
CZ-4B R/B 2.8 16:25:13 10° SSE 16:29:10 59° ENE 16:32:58 10° N
Cosmos 1656 3.9 16:24:23 10° NNW 16:29:56 80° WSW 16:35:33 10° SSE
Cosmos 1933 4.3 16:30:40 10° SSE 16:34:06 27° E 16:37:31 10° NNE
USA 229 DEB 4.0 16:27:23 10° NW 16:34:42 85° NE 16:42:29 10° SE
USA 229 4.0 16:27:30 10° NW 16:34:48 85° NE 16:42:35 10° SE
Cosmos 1464 Rocket 4.1 16:29:41 10° S 16:36:04 82° E 16:42:28 10° N
Cosmos 1937 Rocket 3.7 16:31:06 10° NNW 16:36:17 49° ENE 16:41:26 10° SE
Cosmos 1500 Rocket 3.6 16:34:53 10° N 16:39:19 61° ENE 16:43:40 10° SSE
SL-16 R/B 4.5 16:34:38 10° N 16:39:19 23° NW 16:44:01 10° WSW
Cosmos 1666 4.3 16:37:15 10° NNE 16:39:23 14° ENE 16:41:30 10° E
Spot 1 4.4 16:34:55 10° NNE 16:39:34 64° ESE 16:44:28 10° S
Nadezhda 4 Rocket 4.0 16:34:44 10° N 16:41:06 81° E 16:47:27 10° SSE
SL-24 R/B - RUBIN 2 3.9 16:37:12 10° NNW 16:41:42 45° NE 16:45:54 10° ESE
SeaSat 1 3.8 16:37:45 10° NNE 16:42:12 34° NW 16:46:38 10° WSW
Cosmos 2322 Rocket 3.7 16:39:10 10° N 16:42:42 16° NNE 16:45:58 11° ENE
ATLAS 2AS CENTAUR R/B 4.0 16:36:16 10° W 16:43:08 33° NNW 16:49:44 10° NE
Cosmos 990 Rocket 4.0 16:38:03 10° NNW 16:43:18 88° WSW 16:48:28 10° SSE
Cosmos 1697 Rocket 2.6 16:39:58 10° NNW 16:45:37 74° ENE 16:51:14 10° SE
FengYun 1-2 T 4.2 16:41:19 10° SSE 16:46:53 74° ENE 16:52:26 10° NNW
Cosmos 372 Rocket 4.4 16:42:31 10° NNW 16:47:27 40° ENE 16:52:24 10° SE
Cosmos 1271 Rocket 4.3 16:44:27 10° SW 16:48:07 36° WNW 16:51:50 10° N
Sich 1 3.5 16:44:58 10° N 16:48:59 37° ENE 16:52:59 10° SE
Cosmos 1980 Rocket 2.4 16:44:21 10° NNW 16:49:51 47° NE 16:55:16 10° SE
NOAA 6 4.0 16:45:12 10° SSE 16:50:16 64° ENE 16:55:21 10° N
Cosmos 1805 Rocket 3.7 16:46:49 10° N 16:51:03 48° ENE 16:55:14 10° SSE
Cosmos 2369 3.8 16:46:09 10° NNW 16:51:49 58° NE 16:57:28 10° SE
Cosmos 2221 2.8 16:47:58 10° SSW 16:52:14 71° WNW 16:56:34 10° N
CZ-4C R/B 3.0 16:49:20 10° NW 16:56:04 55° NE 17:04:04 10° ESE
USA 234 3.4 16:49:48 10° ESE 16:56:22 84° SSW 17:02:57 10° WNW
Cosmos 1092 Rocket 4.0 16:50:39 10° N 16:57:00 66° ENE 17:03:17 10° SSE
Cosmos 1842 Rocket 3.8 16:52:39 10° SSW 16:57:07 74° W 17:01:37 10° N
Cosmos 2084 4.4 16:53:44 10° NW 16:57:55 53° SW 17:02:15 10° SSE
NOSS 3-1 (A) 4.4 16:50:52 10° NW 16:58:15 74° SW 17:06:55 10° SSE
Cosmos 1428 Rocket 4.5 16:53:39 10° N 16:59:43 60° ENE 17:05:48 10° SSE
USA 306 3.4 16:56:29 10° WNW 17:00:37 48° N 17:03:42 17° ENE
SL-16 R/B 3.3 16:56:26 10° NNW 17:00:55 23° NE 17:04:15 14° E
Cosmos 1812 4.0 16:58:16 10° SE 17:01:09 20° E 17:02:43 16° NE
ISS -3.7 16:58:26 10° WNW 17:01:51 85° SSW 17:04:58 12° ESE
Meteor 1-25 Rocket 4.2 16:57:08 10° N 17:02:44 82° E 17:08:21 10° SSE
NOSS 2-2 (D) 4.2 16:58:59 10° NW 17:03:54 71° NE 17:10:47 10° SE
NOSS 2-2 (E) 4.3 16:59:10 10° NW 17:04:15 83° NE 17:11:26 10° SE
deb Chang Zheng 4 4.3 17:01:59 10° SE 17:05:46 31° ENE 17:09:34 10° N
SMAP 3.0 17:01:35 10° SSE 17:06:14 86° ENE 17:10:55 10° NNW
Cosmos 2082 Rocket 2.9 17:01:42 10° SSE 17:06:44 34° ESE 17:10:43 15° NE
Cosmos 1939 Rocket 3.0 17:03:21 10° SSE 17:07:28 85° WSW 17:11:34 10° NNW
Cosmos 858 Rocket 4.5 17:03:30 10° NNW 17:08:50 78° ENE 17:14:06 10° SSE
CORIOLIS 4.1 17:03:49 10° SSE 17:09:13 81° ENE 17:14:42 10° NNW
Cosmos 2333 Rocket 4.0 17:08:35 10° N 17:11:05 13° NNE 17:12:25 12° NE
Cosmos 44 Rocket 3.9 17:06:32 10° NNW 17:11:07 35° NE 17:14:23 16° E
CZ-4B DEB 4.1 17:10:06 10° SSE 17:15:36 80° ENE 17:21:08 10° NNW
Cosmos 2278 3.8 17:10:17 10° NNW 17:15:53 52° NE 17:21:26 10° SE
Cosmos 1602 3.6 17:12:24 10° N 17:16:17 89° ENE 17:20:10 10° S
Cosmos 1627 Rocket 4.4 17:12:16 10° N 17:18:30 80° E 17:24:37 10° SSE
USA 307 3.4 17:15:16 10° WNW 17:19:26 48° N 17:21:44 24° ENE
AQUARIUS 4.2 17:15:40 10° SSE 17:20:10 83° WSW 17:24:42 10° NNW
Cosmos 540 Rocket 3.4 17:16:36 10° S 17:21:38 64° ESE 17:26:08 13° NNE
Cosmos 2034 Rocket 4.4 17:16:57 10° SSW 17:23:04 67° WNW 17:29:14 10° N
COSMO-SKYMED 1 3.3 17:23:24 21° NE 17:25:26 32° E 17:29:20 10° SSE
ARGOS 3.4 17:20:41 10° SE 17:25:48 46° ENE 17:30:57 10° N
Cosmos 2279 Rocket 4.2 17:20:56 10° SSE 17:26:47 45° E 17:32:39 10° NNE
COSMOS 2406 3.2 17:21:34 10° SSW 17:27:18 74° ESE 17:32:10 15° NNE
Cosmos 1833 Rocket 2.7 17:22:58 10° SSW 17:28:36 88° WNW 17:33:42 13° NNE
Meteor 2-21 4.4 17:23:22 10° N 17:29:30 85° E 17:35:33 10° S
Cosmos 1782 2.7 17:26:07 10° S 17:30:04 70° E 17:33:48 12° NNE
Cosmos 1814 Rocket 4.5 17:26:27 10° S 17:31:16 38° ESE 17:33:44 24° NE
ATLAS 5 CENTAUR R/B 2.7 17:22:46 10° NW 17:31:34 48° NNE 17:33:07 30° E
Cosmos 1633 Rocket 3.2 17:29:58 10° N 17:34:13 49° ENE 17:38:28 10° SSE
Cosmos 1818 3.7 17:29:52 10° NW 17:35:15 52° NE 17:38:50 20° ESE
ATLAS CENTAUR R/B 3.7 17:32:21 10° WNW 17:35:15 17° NNW 17:37:49 12° NNE
Cosmos 468 Rocket 4.4 17:31:11 10° SW 17:36:17 64° WNW 17:41:28 10° NNE
Cosmos 2219 Rocket 4.0 17:33:34 10° N 17:36:21 13° NNE 17:36:27 13° NNE
YAOGAN 1 3.8 17:39:35 24° NE 17:39:35 24° NE 17:41:58 10° N
ERBS 3.7 17:37:49 10° WNW 17:40:31 24° N 17:41:01 23° N
GEOS 3 Rocket 3.9 17:37:58 24° E 17:40:48 47° NE 17:45:46 10° NW
CZ-2D R/B 3.4 17:37:07 10° S 17:40:57 76° WSW 17:44:47 10° NNW
USA 308 3.3 17:37:47 10° WNW 17:41:56 48° N 17:43:14 35° NE
Cosmos 1634 Rocket 4.0 17:37:20 10° S 17:43:41 88° E 17:50:04 10° N
SJ-11-01 4.3 17:39:02 10° SSE 17:43:42 61° ENE 17:48:23 10° N
COSMOS 2455 2.8 17:38:33 10° SSW 17:44:31 69° ESE 17:48:14 24° NE
CZ-2C R/B 2.7 17:40:35 14° NNE 17:44:56 52° E 17:49:57 10° S
PAYLOAD B 4.4 17:39:50 10° SSE 17:45:27 78° WSW 17:51:06 10° NNW
Cosmos 1500 3.5 17:42:05 10° NNW 17:45:49 64° W 17:49:29 10° S
Cosmos 2026 Rocket 4.3 17:41:09 10° NNW 17:47:16 68° W 17:53:16 10° S
CZ-4B R/B 3.0 17:42:33 10° SSE 17:47:57 82° ENE 17:53:19 10° NNW
Cosmos 1151 Rocket 3.0 17:44:51 10° S 17:49:06 61° E 17:51:27 26° NNE
Lacrosse 5 rocket 1.3 17:45:58 10° NW 17:49:49 58° NNE 17:50:36 48° ENE
Okean O Rocket 1.5 17:47:34 10° SSE 17:52:00 70° ENE 17:56:28 10° N
CZ-4 R/B 3.6 17:59:39 14° N 17:59:39 14° N 18:00:14 10° N
Cosmos 1666 Rocket 3.7 17:55:37 10° NNW 18:00:06 78° W 18:04:29 10° S
Cosmos 2208 Rocket 4.3 17:55:14 10° S 18:00:23 48° ESE 18:01:40 40° ENE
CZ-4 R/B 4.3 17:57:11 10° SSE 18:01:19 81° ENE 18:05:29 10° NNW
Meteor 1-11 Rocket 3.9 17:56:43 10° N 18:02:07 47° ENE 18:05:45 20° SE
Cosmos 1470 Rocket 3.5 17:58:54 10° N 18:03:19 58° ENE 18:07:43 10° SSE
Cosmos 2150 Rocket 4.0 17:58:21 10° NNW 18:03:27 53° ENE 18:04:48 41° ESE
Meteor 1-10 Rocket 4.5 17:58:02 10° SSE 18:03:29 46° E 18:04:52 38° ENE
H-2A R/B 2.6 17:59:06 10° S 18:04:11 59° W 18:09:11 10° NNW
USA 267 3.3 18:01:04 30° NE 18:04:34 72° NNW 18:11:05 10° WSW
Cosmos 1655 Rocket 4.0 17:59:00 10° N 18:05:21 61° ENE 18:11:39 10° SSE
Cosmos 1328 Rocket 3.4 18:02:13 10° S 18:06:38 67° E 18:07:30 52° NE
Cosmos 2360 Rocket 3.1 18:02:55 10° NNW 18:07:10 29° NNE 18:07:10 29° NNE
Landsat 5 3.6 18:08:41 51° SE 18:08:41 51° SE 18:12:02 10° S
USA 305 3.0 18:04:27 10° WNW 18:08:37 55° NNE 18:08:46 55° NNE
SKYMED 2 3.5 18:12:00 37° NNE 18:13:41 88° WNW 18:18:02 10° SSW
Cosmos 1666 3.3 18:11:37 10° NNW 18:15:15 53° W 18:18:52 10° S
Cosmos 2180 Rocket 4.4 18:09:08 10° S 18:15:28 78° E 18:21:46 10° NNE
Cosmos 841 Rocket 3.8 18:10:43 10° SW 18:15:50 62° WNW 18:18:54 24° NNE
Feng Yun 1-1 Rocket 4.2 18:11:30 10° SSE 18:17:25 78° ENE 18:23:17 10° NNW
Meteor 2-8 Rocket 4.3 18:12:53 10° S 18:19:02 80° E 18:25:14 10° NNE
ATLAS CENTAUR R/B 2.4 18:12:08 10° WSW 18:19:59 65° NNW 18:20:43 55° NNE
Cosmos 1125 Rocket 3.4 18:16:20 10° NNW 18:21:34 68° ENE 18:22:14 61° ESE
Cosmos 2322 Rocket 2.3 18:22:26 10° NNW 18:27:49 56° NE 18:27:49 56° NE
NOSS 3-4 (A) 4.4 18:27:44 10° NW 18:33:44 35° NNE 18:33:58 35° NNE
Cosmos 1980 Rocket 3.7 18:28:38 10° NW 18:33:44 35° WSW 18:38:47 10° S
NOSS 3-4 (C) 4.4 18:27:50 10° NW 18:33:49 35° NNE 18:34:04 35° NNE
SL-08 RB Rocket 4.0 18:30:42 10° S 18:35:19 67° WSW 18:39:55 10° NNW
ATLAS 2AS CENTAUR R/B 3.9 18:29:50 10° NW 18:36:18 29° N 18:37:27 28° NNE
Cosmos 1812 4.2 18:33:05 10° SW 18:36:40 36° WNW 18:37:47 29° NW
ISS -1.5 18:35:36 10° W 18:37:58 23° SW 18:37:58 23° SW
USA 306 3.8 18:36:39 10° WNW 18:39:42 44° NW 18:39:42 44° NW
CZ-4C R/B 3.6 18:37:52 10° NW 18:44:53 54° WSW 18:53:00 10° SSE
SL-16 R/B 2.1 18:40:05 10° NNW 18:45:49 89° WSW 18:46:11 79° SSE
Cosmos 2237 Rocket 4.5 18:46:23 10° N 18:47:00 11° N 18:47:00 11° N
Cosmos 2082 Rocket 3.0 18:45:09 10° SW 18:50:39 49° NW 18:52:35 35° N
Cosmos 44 Rocket 3.9 18:48:04 10° NW 18:52:51 51° WSW 18:53:10 50° SW
Cosmos 2333 Rocket 3.8 18:51:51 10° NNW 18:54:26 24° N 18:54:26 24° N
COSMO-SKYMED 1 4.2 19:00:37 28° NW 19:01:35 32° WNW 19:05:26 10° SW
ATLAS CENTAUR R/B 4.4 19:13:39 10° NNW 19:13:56 11° NNW 19:13:56 11° NNW
GEOS 3 Rocket 4.5 19:19:06 45° WSW 19:19:06 45° WSW 19:23:52 10° NW
Cosmos 2219 Rocket 4.2 19:16:31 10° NNW 19:18:11 19° N 19:18:11 19° N
CZ-2C R/B 4.4 19:22:06 17° NNW 19:24:57 27° WNW 19:29:15 10° WSW
Lacrosse 5 rocket 4.1 19:25:12 10° WNW 19:26:12 16° W 19:26:12 16° W
COSMOS 2455 4.1 19:25:32 10° W 19:30:57 33° NW 19:31:23 33° NNW
BREEZE-M DEB (TANK) 4.4 19:27:50 10° SW 19:44:57 64° SSW 19:44:57 64° SSW
USA 267 4.1 19:48:24 44° NW 19:48:24 44° NW 19:53:24 10° WNW
Cosmos 2360 Rocket 4.1 19:46:42 10° NW 19:48:57 24° NW 19:48:57 24° NW
Cosmos 2322 Rocket 4.3 20:06:58 10° NW 20:09:40 23° WNW 20:09:40 23° WNW
ATLAS 2AS CENTAUR R/B 4.4 20:21:42 10° NW 20:24:52 26° NNW 20:24:52 26° NNW
